| time (UTC) | temp F | wind direction | speed knots | gust knots | rain 1hr in | rain 24hr in | rain mn in | humidity % | barometer mb |
| 20260504151126 | 59 | 290 | 20.0 | 20.9 | 0.00 | 0.00 | 0.00 | 43 | 998.8 |
| 20260504150624 | 58 | 298 | 14.8 | 19.1 | 0.00 | 0.00 | 0.00 | 45 | 998.9 |
| 20260504150120 | 58 | 292 | 15.6 | 25.2 | 0.00 | 0.00 | 0.00 | 43 | 998.6 |
| 20260504141049 | 57 | 284 | 14.8 | 24.3 | 0.00 | 0.00 | 0.00 | 41 | 998.6 |
| 20260504140546 | 58 | 306 | 16.5 | 24.3 | 0.00 | 0.00 | 0.00 | 41 | 998.5 |
| 20260504130510 | 57 | 281 | 10.4 | 13.9 | 0.00 | 0.00 | 0.00 | 52 | 997.6 |
| 20260504110357 | 53 | 232 | 10.4 | 14.8 | 0.00 | 0.00 | 0.00 | 52 | 995.9 |
| 20260504100314 | 52 | 222 | 9.6 | 14.8 | 0.00 | 0.00 | 0.00 | 52 | 995.9 |
| 20260504081708 | 50 | 211 | 7.0 | 11.3 | 0.00 | 0.00 | 0.00 | 54 | 997.6 |
| 20260504081204 | 50 | 212 | 7.8 | 11.3 | 0.00 | 0.00 | 0.00 | 55 | 997.9 |
| 20260504080700 | 50 | 207 | 8.7 | 10.4 | 0.00 | 0.00 | 0.00 | 55 | 998.0 |
| 20260504080157 | 50 | 217 | 10.4 | 10.4 | 0.00 | 0.00 | 0.00 | 55 | 997.8 |
| 20260504070125 | 50 | 238 | 4.3 | 6.1 | 0.00 | 0.00 | 0.00 | 53 | 998.7 |
| 20260504050514 | 50 | 241 | 4.3 | 4.3 | 0.00 | 0.00 | 0.00 | 51 | 1001.2 |
| 20260504050011 | 51 | 251 | 2.6 | 3.5 | 0.00 | 0.00 | 0.00 | 51 | 1001.2 |
| 20260504045507 | 51 | 257 | 2.6 | 3.5 | 0.00 | 0.00 | 0.00 | 49 | 1001.4 |
| 20260504045003 | 51 | 250 | 2.6 | 3.5 | 0.00 | 0.00 | 0.00 | 49 | 1001.4 |
| 20260504044500 | 51 | 269 | 2.6 | 3.5 | 0.00 | 0.00 | 0.00 | 49 | 1001.3 |
| 20260504043957 | 51 | 248 | 3.5 | 3.5 | 0.00 | 0.00 | 0.00 | 50 | 1001.6 |
| 20260504043454 | 50 | 269 | 0.0 | 0.9 | 0.00 | 0.00 | 0.00 | 51 | 1001.4 |
| 20260504042952 | 50 | 214 | 0.0 | 0.9 | 0.00 | 0.00 | 0.00 | 50 | 1001.5 |
| 20260504042448 | 51 | 216 | 1.7 | 1.7 | 0.00 | 0.00 | 0.00 | 50 | 1001.5 |
| 20260504041945 | 51 | 243 | 3.5 | 3.5 | 0.00 | 0.00 | 0.00 | 48 | 1001.8 |
| 20260504041441 | 51 | 269 | 2.6 | 3.5 | 0.00 | 0.00 | 0.00 | 48 | 1001.6 |
| 20260504040937 | 51 | 265 | 2.6 | 3.5 | 0.00 | 0.00 | 0.00 | 48 | 1001.9 |
| 20260504040435 | 52 | 265 | 2.6 | 3.5 | 0.00 | 0.00 | 0.00 | 47 | 1001.8 |
| 20260504035931 | 52 | 244 | 2.6 | 2.6 | 0.00 | 0.00 | 0.00 | 47 | 1001.8 |
| 20260504035428 | 52 | 277 | 1.7 | 2.6 | 0.00 | 0.00 | 0.00 | 47 | 1001.9 |
| 20260504034925 | 52 | 279 | 1.7 | 1.7 | 0.00 | 0.00 | 0.00 | 47 | 1002.1 |
| 20260504034423 | 52 | 223 | 0.9 | 1.7 | 0.00 | 0.00 | 0.00 | 49 | 1002.6 |
| 20260504033919 | 52 | 218 | 0.0 | 1.7 | 0.00 | 0.00 | 0.00 | 48 | 1002.3 |
| 20260504033417 | 52 | 183 | 0.9 | 1.7 | 0.00 | 0.00 | 0.00 | 46 | 1002.4 |
| 20260504032914 | 53 | 202 | 1.7 | 2.6 | 0.00 | 0.00 | 0.00 | 44 | 1002.4 |
| 20260504032411 | 54 | 309 | 0.0 | 0.0 | 0.00 | 0.00 | 0.00 | 43 | 1002.4 |
| 20260504031908 | 54 | 282 | 0.0 | 1.7 | 0.00 | 0.00 | 0.00 | 42 | 1002.6 |
| 20260504031405 | 54 | 259 | 0.9 | 1.7 | 0.00 | 0.00 | 0.00 | 42 | 1002.7 |
| 20260504030901 | 55 | 221 | 1.7 | 1.7 | 0.00 | 0.00 | 0.00 | 41 | 1002.8 |
| 20260504030358 | 56 | 247 | 1.7 | 1.7 | 0.00 | 0.00 | 0.00 | 40 | 1002.9 |
| 20260504025854 | 55 | 271 | 1.7 | 2.6 | 0.00 | 0.00 | 0.00 | 41 | 1003.0 |
| 20260504025351 | 56 | 267 | 1.7 | 2.6 | 0.00 | 0.00 | 0.00 | 40 | 1002.8 |
| 20260504024848 | 57 | 269 | 1.7 | 2.6 | 0.00 | 0.00 | 0.00 | 39 | 1003.1 |
| 20260504024345 | 57 | 260 | 1.7 | 2.6 | 0.00 | 0.00 | 0.00 | 37 | 1002.9 |
| 20260504023842 | 57 | 285 | 2.6 | 2.6 | 0.00 | 0.00 | 0.00 | 37 | 1002.9 |
| 20260504023339 | 58 | 266 | 1.7 | 1.7 | 0.00 | 0.00 | 0.00 | 36 | 1003.0 |
| 20260504022834 | 59 | 268 | 1.7 | 1.7 | 0.00 | 0.00 | 0.00 | 35 | 1003.1 |
| 20260504022331 | 60 | 268 | 1.7 | 1.7 | 0.00 | 0.00 | 0.00 | 33 | 1002.8 |
| 20260504021827 | 59 | 267 | 0.9 | 1.7 | 0.00 | 0.00 | 0.00 | 34 | 1003.2 |
| 20260504021325 | 58 | 275 | 0.9 | 1.7 | 0.00 | 0.00 | 0.00 | 35 | 1003.0 |
| 20260504020822 | 59 | 285 | 1.7 | 1.7 | 0.00 | 0.00 | 0.00 | 35 | 1002.9 |
| 20260504020319 | 60 | 242 | 1.7 | 1.7 | 0.00 | 0.00 | 0.00 | 34 | 1002.8 |
| 20260504015814 | 60 | 251 | 0.9 | 1.7 | 0.00 | 0.00 | 0.00 | 33 | 1003.2 |
| 20260504015311 | 60 | 306 | 1.7 | 1.7 | 0.00 | 0.00 | 0.00 | 33 | 1003.2 |
| 20260504014807 | 61 | 285 | 1.7 | 1.7 | 0.00 | 0.00 | 0.00 | 32 | 1003.2 |
| 20260504014303 | 61 | 198 | 1.7 | 2.6 | 0.00 | 0.00 | 0.00 | 33 | 1003.3 |
| 20260504013801 | 62 | 263 | 1.7 | 1.7 | 0.00 | 0.00 | 0.00 | 31 | 1003.1 |
| 20260504013259 | 63 | 291 | 1.7 | 2.6 | 0.00 | 0.00 | 0.00 | 29 | 1003.1 |
| 20260504012755 | 63 | 301 | 2.6 | 4.3 | 0.00 | 0.00 | 0.00 | 28 | 1003.3 |
| 20260504012253 | 63 | 305 | 1.7 | 2.6 | 0.00 | 0.00 | 0.00 | 29 | 1003.5 |
| 20260504011749 | 64 | 294 | 3.5 | 3.5 | 0.00 | 0.00 | 0.00 | 29 | 1003.3 |
| 20260504011246 | 64 | 331 | 1.7 | 2.6 | 0.00 | 0.00 | 0.00 | 29 | 1003.2 |
| 20260504010742 | 64 | 288 | 2.6 | 3.5 | 0.00 | 0.00 | 0.00 | 29 | 1003.2 |
| 20260504010238 | 64 | 296 | 3.5 | 3.5 | 0.00 | 0.00 | 0.00 | 29 | 1003.5 |
| 20260504005735 | 64 | 301 | 2.6 | 2.6 | 0.00 | 0.00 | 0.00 | 30 | 1003.4 |
| 20260504005232 | 64 | 282 | 3.5 | 3.5 | 0.00 | 0.00 | 0.00 | 29 | 1003.5 |
| 20260504004730 | 65 | 290 | 3.5 | 5.2 | 0.00 | 0.00 | 0.00 | 28 | 1003.4 |
| 20260504004226 | 66 | 280 | 4.3 | 7.0 | 0.00 | 0.00 | 0.00 | 26 | 1003.4 |
| 20260504003723 | 67 | 271 | 5.2 | 7.8 | 0.00 | 0.00 | 0.00 | 25 | 1003.5 |
| 20260504003220 | 68 | 271 | 5.2 | 9.6 | 0.00 | 0.00 | 0.00 | 24 | 1003.5 |
| 20260504002717 | 68 | 268 | 9.6 | 13.0 | 0.00 | 0.00 | 0.00 | 23 | 1003.7 |
| 20260504002214 | 68 | 263 | 7.8 | 13.0 | 0.00 | 0.00 | 0.00 | 24 | 1003.7 |
| 20260504001712 | 69 | 266 | 10.4 | 12.2 | 0.00 | 0.00 | 0.00 | 24 | 1003.7 |
| 20260504001208 | 69 | 261 | 11.3 | 14.8 | 0.00 | 0.00 | 0.00 | 26 | 1003.9 |
| 20260504000705 | 69 | 278 | 16.5 | 17.4 | 0.00 | 0.00 | 0.00 | 26 | 1003.9 |
| 20260504000204 | 69 | 278 | 13.9 | 15.6 | 0.00 | 0.00 | 0.00 | 26 | 1003.9 |
| 20260503235700 | 69 | 260 | 10.4 | 13.9 | 0.00 | 0.00 | 0.00 | 26 | 1003.7 |
| 20260503235157 | 69 | 250 | 9.6 | 15.6 | 0.00 | 0.00 | 0.00 | 28 | 1003.8 |
| 20260503234655 | 70 | 271 | 13.0 | 15.6 | 0.00 | 0.00 | 0.00 | 25 | 1003.8 |
| 20260503234153 | 70 | 289 | 11.3 | 17.4 | 0.00 | 0.00 | 0.00 | 24 | 1003.9 |
| 20260503233649 | 70 | 281 | 9.6 | 15.6 | 0.00 | 0.00 | 0.00 | 25 | 1003.8 |
| 20260503233145 | 70 | 266 | 10.4 | 14.8 | 0.00 | 0.00 | 0.00 | 25 | 1004.0 |
| 20260503232642 | 71 | 276 | 11.3 | 17.4 | 0.00 | 0.00 | 0.00 | 26 | 1004.2 |
| 20260503232139 | 70 | 277 | 11.3 | 12.2 | 0.00 | 0.00 | 0.00 | 26 | 1004.1 |
| 20260503231638 | 71 | 281 | 17.4 | 18.2 | 0.00 | 0.00 | 0.00 | 25 | 1004.4 |
| 20260503231133 | 71 | 289 | 11.3 | 14.8 | 0.00 | 0.00 | 0.00 | 25 | 1004.4 |
| 20260503230631 | 70 | 279 | 8.7 | 17.4 | 0.00 | 0.00 | 0.00 | 25 | 1004.2 |
| 20260503230128 | 70 | 279 | 15.6 | 16.5 | 0.00 | 0.00 | 0.00 | 24 | 1004.2 |
| 20260503225625 | 71 | 286 | 14.8 | 22.6 | 0.00 | 0.00 | 0.00 | 24 | 1004.4 |
| 20260503225125 | 71 | 283 | 12.2 | 18.2 | 0.00 | 0.00 | 0.00 | 23 | 1004.5 |
| 20260503224622 | 71 | 323 | 13.0 | 18.2 | 0.00 | 0.00 | 0.00 | 24 | 1004.5 |
| 20260503224120 | 71 | 336 | 7.8 | 14.8 | 0.00 | 0.00 | 0.00 | 26 | 1004.4 |
| 20260503223618 | 71 | 317 | 7.8 | 18.2 | 0.00 | 0.00 | 0.00 | 25 | 1004.2 |
| 20260503223113 | 71 | 297 | 16.5 | 17.4 | 0.00 | 0.00 | 0.00 | 24 | 1004.5 |
| 20260503222612 | 71 | 277 | 14.8 | 16.5 | 0.00 | 0.00 | 0.00 | 25 | 1004.4 |
| 20260503222109 | 71 | 277 | 10.4 | 15.6 | 0.00 | 0.00 | 0.00 | 25 | 1004.4 |
| 20260503221607 | 71 | 292 | 16.5 | 19.1 | 0.00 | 0.00 | 0.00 | 24 | 1004.4 |
| 20260503221104 | 71 | 272 | 12.2 | 15.6 | 0.00 | 0.00 | 0.00 | 25 | 1004.4 |
| 20260503220600 | 71 | 288 | 11.3 | 15.6 | 0.00 | 0.00 | 0.00 | 25 | 1004.5 |
| 20260503220058 | 71 | 276 | 12.2 | 20.0 | 0.00 | 0.00 | 0.00 | 25 | 1004.5 |
| 20260503215555 | 71 | 291 | 12.2 | 20.0 | 0.00 | 0.00 | 0.00 | 24 | 1004.4 |
| 20260503215051 | 71 | 280 | 10.4 | 18.2 | 0.00 | 0.00 | 0.00 | 26 | 1004.6 |
| 20260503214550 | 70 | 0 | 7.0 | 15.6 | 0.00 | 0.00 | 0.00 | 26 | 1004.6 |
| 20260503214046 | 71 | 266 | 12.2 | 18.2 | 0.00 | 0.00 | 0.00 | 26 | 1004.4 |
| 20260503213544 | 71 | 273 | 13.0 | 17.4 | 0.00 | 0.00 | 0.00 | 26 | 1004.6 |
| 20260503213041 | 71 | 276 | 11.3 | 16.5 | 0.00 | 0.00 | 0.00 | 26 | 1004.7 |
| 20260503212538 | 70 | 287 | 10.4 | 13.0 | 0.00 | 0.00 | 0.00 | 25 | 1004.7 |
| 20260503212036 | 71 | 317 | 6.1 | 18.2 | 0.00 | 0.00 | 0.00 | 25 | 1004.8 |
| 20260503211532 | 70 | 284 | 9.6 | 13.9 | 0.00 | 0.00 | 0.00 | 26 | 1004.8 |
| 20260503211028 | 70 | 304 | 11.3 | 13.9 | 0.00 | 0.00 | 0.00 | 26 | 1004.9 |
| 20260503210525 | 70 | 296 | 16.5 | 20.0 | 0.00 | 0.00 | 0.00 | 25 | 1005.1 |
| 20260503210021 | 70 | 323 | 7.0 | 13.9 | 0.00 | 0.00 | 0.00 | 25 | 1005.2 |
| 20260503205518 | 71 | 291 | 4.3 | 13.0 | 0.00 | 0.00 | 0.00 | 24 | 1005.0 |
| 20260503205014 | 70 | 341 | 6.1 | 13.9 | 0.00 | 0.00 | 0.00 | 26 | 1005.3 |
| 20260503204511 | 71 | 344 | 13.0 | 18.2 | 0.00 | 0.00 | 0.00 | 24 | 1005.3 |
| 20260503204008 | 70 | 291 | 15.6 | 16.5 | 0.00 | 0.00 | 0.00 | 26 | 1005.0 |
| 20260503203505 | 70 | 279 | 11.3 | 13.0 | 0.00 | 0.00 | 0.00 | 25 | 1005.6 |
| 20260503203002 | 70 | 309 | 6.1 | 14.8 | 0.00 | 0.00 | 0.00 | 25 | 1005.6 |
| 20260503202500 | 70 | 300 | 7.8 | 15.6 | 0.00 | 0.00 | 0.00 | 25 | 1005.5 |
| 20260503201958 | 69 | 295 | 13.0 | 18.2 | 0.00 | 0.00 | 0.00 | 25 | 1005.7 |
| 20260503201455 | 70 | 298 | 13.9 | 20.9 | 0.00 | 0.00 | 0.00 | 25 | 1005.6 |
| 20260503200953 | 69 | 307 | 7.8 | 16.5 | 0.00 | 0.00 | 0.00 | 26 | 1005.5 |
| 20260503200449 | 70 | 291 | 5.2 | 15.6 | 0.00 | 0.00 | 0.00 | 26 | 1005.6 |
| 20260503195945 | 69 | 281 | 12.2 | 24.3 | 0.00 | 0.00 | 0.00 | 26 | 1005.8 |
| 20260503195443 | 69 | 298 | 7.0 | 12.2 | 0.00 | 0.00 | 0.00 | 27 | 1005.8 |
| 20260503194939 | 71 | 328 | 7.8 | 21.7 | 0.00 | 0.00 | 0.00 | 25 | 1005.7 |
| 20260503194437 | 70 | 263 | 12.2 | 16.5 | 0.00 | 0.00 | 0.00 | 27 | 1006.0 |
| 20260503193932 | 69 | 326 | 5.2 | 10.4 | 0.00 | 0.00 | 0.00 | 28 | 1005.9 |
| 20260503193427 | 69 | 295 | 10.4 | 18.2 | 0.00 | 0.00 | 0.00 | 28 | 1006.0 |
| 20260503192923 | 69 | 326 | 9.6 | 16.5 | 0.00 | 0.00 | 0.00 | 28 | 1006.1 |
| 20260503192420 | 70 | 337 | 10.4 | 17.4 | 0.00 | 0.00 | 0.00 | 29 | 1005.9 |
| 20260503191915 | 69 | 308 | 14.8 | 24.3 | 0.00 | 0.00 | 0.00 | 28 | 1006.0 |
| 20260503191413 | 70 | 318 | 16.5 | 22.6 | 0.00 | 0.00 | 0.00 | 27 | 1005.9 |
| 20260503190909 | 68 | 325 | 6.1 | 12.2 | 0.00 | 0.00 | 0.00 | 30 | 1006.2 |
| 20260503190407 | 68 | 346 | 7.0 | 14.8 | 0.00 | 0.00 | 0.00 | 31 | 1006.1 |
| 20260503185903 | 68 | 339 | 10.4 | 16.5 | 0.00 | 0.00 | 0.00 | 28 | 1006.1 |
| 20260503185400 | 68 | 352 | 8.7 | 14.8 | 0.00 | 0.00 | 0.00 | 29 | 1006.2 |
| 20260503184859 | 68 | 322 | 11.3 | 16.5 | 0.00 | 0.00 | 0.00 | 28 | 1006.4 |
| 20260503184356 | 68 | 327 | 11.3 | 12.2 | 0.00 | 0.00 | 0.00 | 29 | 1006.2 |
| 20260503183852 | 68 | 305 | 12.2 | 18.2 | 0.00 | 0.00 | 0.00 | 27 | 1006.2 |
| 20260503183349 | 68 | 289 | 13.9 | 18.2 | 0.00 | 0.00 | 0.00 | 28 | 1006.4 |
| 20260503182846 | 68 | 320 | 7.0 | 18.2 | 0.00 | 0.00 | 0.00 | 28 | 1006.2 |
| 20260503182345 | 68 | 323 | 4.3 | 15.6 | 0.00 | 0.00 | 0.00 | 31 | 1006.4 |
| 20260503181842 | 68 | 294 | 11.3 | 19.1 | 0.00 | 0.00 | 0.00 | 30 | 1006.5 |
| 20260503181339 | 67 | 306 | 10.4 | 14.8 | 0.00 | 0.00 | 0.00 | 29 | 1006.5 |
| 20260503180836 | 67 | 309 | 7.8 | 20.0 | 0.00 | 0.00 | 0.00 | 30 | 1006.7 |
| 20260503180334 | 67 | 310 | 11.3 | 16.5 | 0.00 | 0.00 | 0.00 | 30 | 1006.6 |
| 20260503175830 | 67 | 330 | 9.6 | 14.8 | 0.00 | 0.00 | 0.00 | 31 | 1006.6 |
| 20260503175328 | 67 | 323 | 15.6 | 16.5 | 0.00 | 0.00 | 0.00 | 30 | 1006.7 |
| 20260503174823 | 66 | 355 | 6.1 | 15.6 | 0.00 | 0.00 | 0.00 | 31 | 1006.7 |
| 20260503174322 | 67 | 285 | 5.2 | 13.0 | 0.00 | 0.00 | 0.00 | 32 | 1006.8 |
| 20260503173817 | 67 | 307 | 9.6 | 20.9 | 0.00 | 0.00 | 0.00 | 30 | 1006.8 |
| 20260503173313 | 67 | 321 | 8.7 | 14.8 | 0.00 | 0.00 | 0.00 | 31 | 1006.9 |
| 20260503172810 | 67 | 316 | 4.3 | 14.8 | 0.00 | 0.00 | 0.00 | 30 | 1006.9 |
| 20260503172308 | 66 | 311 | 9.6 | 17.4 | 0.00 | 0.00 | 0.00 | 30 | 1007.1 |
| 20260503171803 | 66 | 315 | 9.6 | 16.5 | 0.00 | 0.00 | 0.00 | 33 | 1006.9 |
| 20260503171300 | 65 | 318 | 3.5 | 13.0 | 0.00 | 0.00 | 0.00 | 32 | 1007.0 |
| 20260503170758 | 65 | 339 | 6.1 | 17.4 | 0.00 | 0.00 | 0.00 | 31 | 1007.0 |
| 20260503170254 | 65 | 278 | 18.2 | 19.1 | 0.00 | 0.00 | 0.00 | 31 | 1006.8 |
| 20260503160217 | 64 | 339 | 7.8 | 13.0 | 0.00 | 0.00 | 0.00 | 38 | 1007.0 |